Miami, FL

1:12 AM EDT on May 22, 2018 (GMT -0400)
Miami International

Weather History for KMIA - February, 2013

Change the Weather History Date:

Friday, February 8, 2013

  Actual Average Record
Temperature  
Mean Temperature 77 °F 70 °F  
Max Temperature 85 °F 78 °F 88 °F (1974)
Min Temperature 68 °F 62 °F 40 °F (1943)
Degree Days  
Heating Degree Days 0 1  
Month to date heating degree days 0 8  
Since 1 July heating degree days 20 98  
Cooling Degree Days 12 6  
Month to date cooling degree days 38 42  
Year to date cooling degree days 307 193  
Growing Degree Days 26 (Base 50)    
Moisture  
Dew Point 67 °F    
Average Humidity 76    
Maximum Humidity 97    
Minimum Humidity 55    
Precipitation  
Precipitation T in 0.08 in 1.97 in (1941)
Month to date precipitation T 0.62  
Year to date precipitation 0.54 2.24  
Snow  
Snow 0.00 in - - ()
Month to date snowfall 0.0  
Since 1 July snowfall 0.0  
Snow Depth 0.00 in    
Sea Level Pressure  
Sea Level Pressure 30.00 in    
Wind  
Wind Speed 6 mph (WSW)    
Max Wind Speed 15 mph    
Max Gust Speed 21 mph    
Visibility 10 miles    
Events      
T = Trace of Precipitation, MM = Missing Value Source: NWS Daily Summary

Daily Weather History Graph

Daily Weather History Graph

Search for Another Location

Airport or City:

Astronomy

Feb. 08, 2013 Rise Set
Actual Time 7:00 AM EST 6:10 PM EST
Civil Twilight 6:37 AM EST 6:33 PM EST
Nautical Twilight 6:09 AM EST 7:01 PM EST
Astronomical Twilight 5:42 AM EST 7:28 PM EST
Moon 5:23 AM EST (2/8) 4:44 PM EST (2/8)
Length of Visible Light 11h 56m
Length of Day
11h 09m
Waning Crescent, 3% of the Moon is Illuminated
Feb 8
Waning Crescent
Feb 10
New
Feb 17
First Quarter
Feb 25
Full
Mar 4
Last Quarter

Hourly Weather History & Observations

Time (EST) Temp. Heat Index Dew Point Humidity Pressure Visibility Wind Dir Wind Speed Gust Speed Precip Events Conditions
12:53 AM 70.0 °F - 64.9 °F 84% 29.96 in 10.0 mi Variable 6.9 mph - N/A   Clear
1:53 AM 69.1 °F - 64.9 °F 87% 29.96 in 10.0 mi Variable 3.5 mph - N/A   Partly Cloudy
2:53 AM 69.1 °F - 64.9 °F 87% 29.95 in 10.0 mi Calm Calm - N/A   Clear
3:53 AM 69.1 °F - 66.0 °F 90% 29.95 in 10.0 mi SSW 4.6 mph - N/A   Partly Cloudy
4:53 AM 69.1 °F - 66.9 °F 93% 29.96 in 10.0 mi South 3.5 mph - N/A   Scattered Clouds
5:53 AM 70.0 °F - 68.0 °F 93% 29.96 in 10.0 mi South 3.5 mph - N/A   Clear
6:53 AM 70.0 °F - 68.0 °F 93% 29.99 in 10.0 mi SSW 3.5 mph - N/A   Clear
7:53 AM 71.1 °F - 70.0 °F 96% 30.01 in 10.0 mi SSW 3.5 mph - N/A   Mostly Cloudy
8:53 AM 73.9 °F - 71.1 °F 91% 30.03 in 10.0 mi SW 8.1 mph - N/A   Mostly Cloudy
9:53 AM 77.0 °F - 69.1 °F 76% 30.04 in 10.0 mi WSW 11.5 mph - N/A   Mostly Cloudy
10:53 AM 79.0 °F - 68.0 °F 69% 30.04 in 10.0 mi WSW 11.5 mph 16.1 mph N/A   Scattered Clouds
11:53 AM 82.0 °F 84.9 °F 68.0 °F 62% 30.03 in 10.0 mi West 10.4 mph - N/A   Mostly Cloudy
12:53 PM 82.9 °F 85.4 °F 66.9 °F 58% 30.01 in 10.0 mi WNW 10.4 mph - N/A   Scattered Clouds
1:53 PM 82.9 °F 85.4 °F 66.9 °F 58% 29.99 in 10.0 mi WNW 9.2 mph - N/A   Scattered Clouds
2:53 PM 84.0 °F 86.5 °F 66.9 °F 56% 29.97 in 10.0 mi SW 9.2 mph - N/A   Scattered Clouds
3:53 PM 82.9 °F 85.4 °F 66.9 °F 58% 29.97 in 10.0 mi West 6.9 mph - N/A   Mostly Cloudy
4:37 PM 78.8 °F - 68.0 °F 69% 29.97 in 10.0 mi North 5.8 mph - N/A   Mostly Cloudy
4:53 PM 79.0 °F - 68.0 °F 69% 29.98 in 10.0 mi Variable 5.8 mph - N/A   Mostly Cloudy
5:53 PM 80.1 °F 82.7 °F 68.0 °F 67% 29.98 in 10.0 mi WSW 6.9 mph - 0.00 in   Partly Cloudy
6:53 PM 78.1 °F - 68.0 °F 71% 29.99 in 10.0 mi WSW 8.1 mph - N/A   Partly Cloudy
7:53 PM 75.9 °F - 68.0 °F 76% 30.01 in 10.0 mi WSW 5.8 mph - N/A   Partly Cloudy
8:53 PM 73.9 °F - 66.9 °F 79% 30.03 in 10.0 mi Variable 3.5 mph - N/A   Clear
9:53 PM 72.0 °F - 66.0 °F 81% 30.04 in 10.0 mi Variable 4.6 mph - N/A   Clear
10:53 PM 71.1 °F - 64.0 °F 78% 30.04 in 10.0 mi West 3.5 mph - N/A   Clear
11:53 PM 70.0 °F - 57.9 °F 65% 30.05 in 10.0 mi WNW 4.6 mph - N/A   Clear